Weather History for KWVI - June, 2013

Change the Weather History Date:

Thursday, June 6, 2013

  Actual Average Record
Temperature  
Mean Temperature 59 °F 61 °F  
Max Temperature 65 °F 72 °F 83 °F (2004)
Min Temperature 52 °F 50 °F 43 °F (2007)
Degree Days  
Heating Degree Days 6    
Month to date heating degree days 37  
Since 1 June heating degree days 37  
Since 1 July heating degree days 2955  
Cooling Degree Days 0    
Month to date cooling degree days 0  
Year to date cooling degree days 6  
Since 1 June cooling degree days 0  
Growing Degree Days 8 (Base 50)    
Moisture  
Dew Point 50 °F    
Average Humidity 77    
Maximum Humidity 93    
Minimum Humidity 60    
Precipitation  
Precipitation 0.00 in - 0.09 in (1993)
Month to date precipitation 0.00  
Year to date precipitation 2.34  
Since 1 July precipitation 13.28  
Sea Level Pressure  
Sea Level Pressure 29.96 in    
Wind  
Wind Speed 5 mph (SW)    
Max Wind Speed 13 mph    
Max Gust Speed 17 mph    
Visibility 10 miles    
Events      
T = Trace of Precipitation, MM = Missing Value Source: NWS Daily Summary

Daily Weather History Graph

Daily Weather History Graph

Search for Another Location

Airport or City:

Trip Planner

Search our weather history database for the weather conditions in past years. The results will help you decide how hot, cold, wet, or windy it might be!

Date:

Astronomy

Jun. 06, 2013 Rise Set
Actual Time 5:47 AM PDT 8:24 PM PDT
Civil Twilight 5:17 AM PDT 8:54 PM PDT
Nautical Twilight 4:39 AM PDT 9:32 PM PDT
Astronomical Twilight 3:57 AM PDT 10:15 PM PDT
Moon 4:30 AM PDT (6/6) 6:52 PM PDT (6/6)
Length of Visible Light 15h 37m
Length of Day
14h 36m
Waning Crescent, 3% of the Moon is Illuminated
Jun 6
Waning Crescent
Jun 8
New
Jun 16
First Quarter
Jun 23
Full
Jun 29
Last Quarter

Hourly Weather History & Observations

Time (PDT) Temp. Dew Point Humidity Pressure Visibility Wind Dir Wind Speed Gust Speed Precip Events Conditions
12:44 AM 53.6 °F 48.2 °F 82% 29.99 in 10.0 mi Calm Calm - N/A   Overcast
12:53 AM 53.1 °F 48.9 °F 86% 29.99 in 10.0 mi Calm Calm - N/A   Overcast
1:53 AM 53.1 °F 48.9 °F 86% 29.98 in 10.0 mi SSW 3.5 mph - N/A   Overcast
2:53 AM 53.1 °F 48.9 °F 86% 29.97 in 10.0 mi Calm Calm - N/A   Overcast
3:53 AM 53.1 °F 50.0 °F 89% 29.97 in 10.0 mi Calm Calm - N/A   Overcast
4:53 AM 53.1 °F 50.0 °F 89% 29.96 in 10.0 mi Calm Calm - N/A   Overcast
5:53 AM 53.1 °F 48.9 °F 86% 29.97 in 10.0 mi SSW 3.5 mph - N/A   Overcast
6:53 AM 53.1 °F 48.9 °F 86% 29.97 in 10.0 mi Calm Calm - N/A   Overcast
7:53 AM 53.1 °F 48.9 °F 86% 29.98 in 10.0 mi WSW 3.5 mph - N/A   Overcast
8:53 AM 54.0 °F 48.9 °F 83% 29.98 in 10.0 mi Calm Calm - N/A   Overcast
9:18 AM 55.4 °F 48.2 °F 77% 29.98 in 10.0 mi Calm Calm - N/A   Overcast
9:53 AM 57.0 °F 48.9 °F 74% 29.98 in 10.0 mi Variable 3.5 mph - N/A   Overcast
10:53 AM 61.0 °F 50.0 °F 67% 29.97 in 10.0 mi SSW 5.8 mph - N/A   Scattered Clouds
11:53 AM 62.1 °F 50.0 °F 65% 29.97 in 10.0 mi SW 4.6 mph - N/A   Clear
12:53 PM 64.0 °F 50.0 °F 60% 29.96 in 10.0 mi South 10.4 mph - N/A   Clear
1:53 PM 64.9 °F 50.0 °F 58% 29.95 in 10.0 mi SSW 10.4 mph - N/A   Clear
2:53 PM 63.0 °F 50.0 °F 63% 29.95 in 10.0 mi SW 10.4 mph - N/A   Clear
3:53 PM 63.0 °F 50.0 °F 63% 29.94 in 10.0 mi WSW 10.4 mph - N/A   Clear
4:53 PM 61.0 °F 50.0 °F 67% 29.93 in 10.0 mi WSW 10.4 mph - N/A   Clear
5:51 PM 57.2 °F 51.8 °F 82% 29.93 in 10.0 mi SSW 8.1 mph - N/A   Mostly Cloudy
5:53 PM 57.0 °F 51.1 °F 81% 29.93 in 10.0 mi SW 9.2 mph - N/A   Mostly Cloudy
6:10 PM 57.2 °F 51.8 °F 82% 29.93 in 10.0 mi WSW 8.1 mph - N/A   Mostly Cloudy
6:21 PM 57.2 °F 51.8 °F 82% 29.93 in 10.0 mi WSW 8.1 mph - N/A   Scattered Clouds
6:29 PM 57.2 °F 51.8 °F 82% 29.93 in 10.0 mi SW 8.1 mph - N/A   Mostly Cloudy
6:53 PM 57.0 °F 51.1 °F 81% 29.94 in 10.0 mi West 4.6 mph - N/A   Overcast
7:53 PM 54.0 °F 50.0 °F 86% 29.94 in 10.0 mi SW 5.8 mph - N/A   Overcast
8:53 PM 53.1 °F 50.0 °F 89% 29.94 in 10.0 mi SSW 3.5 mph - N/A   Overcast
9:53 PM 53.1 °F 50.0 °F 89% 29.95 in 10.0 mi SSW 3.5 mph - N/A   Overcast
10:53 PM 53.1 °F 50.0 °F 89% 29.95 in 10.0 mi Calm Calm - N/A   Overcast
11:50 PM 53.6 °F 51.8 °F 94% 29.95 in 10.0 mi South 3.5 mph - N/A   Overcast
11:53 PM 53.1 °F 51.1 °F 93% 29.95 in 10.0 mi Calm Calm - N/A   Overcast